Orbital Elements at Epoch 2459000.5 (2020-May-31.0) TDB
Reference: JPL 21 (heliocentric ecliptic J2000)
Element | Value | Uncertainty (1-sigma) | Units |
e | .2904579817505536 | 4.074e-08 | |
a | 2.602250437113032 | 7.2285e-09 | au |
q | 1.846406027139685 | 1.0551e-07 | au |
i | 5.109591837055413 | 4.3574e-06 | deg |
node | 267.7801175033098 | 4.3928e-05 | deg |
peri | 140.7514539400757 | 4.4811e-05 | deg |
M | 49.06196868135326 | 6.0011e-06 | deg |
tp | 2458791.539339550695 (2019-Nov-04.03933955) | 2.5653e-05 | TDB |
period | 1533.282087604867 4.20 | 6.3887e-06 1.749e-08 | d yr |
n | .2347904556573503 | 9.7829e-10 | deg/d |
Q | 3.358094847086379 | 9.3281e-09 | au |
|
| | Orbit Determination Parameters
Additional Information
|